| time (UTC) | temp F | wind direction | speed MPH | gust MPH | rain 1hr in | rain 24hr in | rain mn in | humidity % | barometer mb |
| 20260505074321 | 63 | 148 | 3.0 | 6.0 | 0.00 | 0.13 | 0.00 | 49 | 1017.2 |
| 20260505073832 | 63 | 155 | 2.0 | 5.0 | 0.00 | 0.13 | 0.00 | 45 | 1017.1 |
| 20260505073323 | 63 | 151 | 1.0 | 8.0 | 0.00 | 0.13 | 0.00 | 51 | 1017.2 |
| 20260505072831 | 63 | 141 | 4.0 | 9.0 | 0.00 | 0.13 | 0.00 | 46 | 1017.1 |
| 20260505072321 | 63 | 186 | 4.0 | 9.0 | 0.00 | 0.13 | 0.00 | 44 | 1017.0 |
| 20260505071830 | 64 | 143 | 2.0 | 6.0 | 0.00 | 0.13 | 0.00 | 48 | 1017.0 |
| 20260505071320 | 64 | 96 | 1.0 | 7.0 | 0.00 | 0.13 | 0.00 | 48 | 1016.9 |
| 20260505070829 | 65 | 139 | 1.0 | 7.0 | 0.00 | 0.13 | 0.00 | 47 | 1017.0 |
| 20260505070339 | 65 | 148 | 1.0 | 6.0 | 0.00 | 0.13 | 0.00 | 47 | 1016.9 |
| 20260505065829 | 65 | 187 | 4.0 | 7.0 | 0.00 | 0.13 | 0.00 | 43 | 1016.9 |
| 20260505065340 | 64 | 117 | 2.0 | 9.0 | 0.00 | 0.13 | 0.00 | 46 | 1016.8 |
| 20260505064831 | 64 | 102 | 4.0 | 8.0 | 0.00 | 0.13 | 0.00 | 45 | 1016.8 |
| 20260505064322 | 64 | 115 | 2.0 | 9.0 | 0.00 | 0.13 | 0.00 | 42 | 1016.7 |
| 20260505063833 | 64 | 88 | 4.0 | 9.0 | 0.00 | 0.13 | 0.00 | 45 | 1016.8 |
| 20260505063324 | 64 | 86 | 2.0 | 11.0 | 0.00 | 0.13 | 0.00 | 45 | 1016.8 |
| 20260505062829 | 64 | 165 | 2.0 | 11.0 | 0.00 | 0.13 | 0.00 | 41 | 1016.8 |
| 20260505062340 | 64 | 126 | 4.0 | 11.0 | 0.00 | 0.13 | 0.00 | 45 | 1016.7 |
| 20260505061830 | 64 | 92 | 4.0 | 11.0 | 0.00 | 0.13 | 0.00 | 44 | 1016.8 |
| 20260505061319 | 64 | 172 | 3.0 | 12.0 | 0.00 | 0.13 | 0.00 | 45 | 1016.7 |
| 20260505060830 | 64 | 127 | 5.0 | 11.0 | 0.00 | 0.13 | 0.00 | 44 | 1016.8 |
| 20260505060325 | 64 | 174 | 3.0 | 11.0 | 0.00 | 0.13 | 0.00 | 45 | 1016.7 |
| 20260505055853 | 64 | 99 | 2.0 | 8.0 | 0.00 | 0.13 | 0.00 | 45 | 1016.7 |
| 20260505055323 | 64 | 163 | 4.0 | 10.0 | 0.00 | 0.13 | 0.00 | 44 | 1016.7 |
| 20260505054834 | 64 | 150 | 4.0 | 11.0 | 0.00 | 0.13 | 0.00 | 44 | 1016.8 |
| 20260505054325 | 64 | 150 | 4.0 | 11.0 | 0.00 | 0.13 | 0.00 | 44 | 1016.9 |
| 20260505053834 | 64 | 139 | 3.0 | 10.0 | 0.00 | 0.13 | 0.00 | 44 | 1016.9 |
| 20260505053325 | 64 | 159 | 5.0 | 9.0 | 0.00 | 0.13 | 0.00 | 43 | 1016.9 |
| 20260505052832 | 64 | 143 | 5.0 | 10.0 | 0.00 | 0.13 | 0.00 | 42 | 1017.0 |
| 20260505052323 | 64 | 191 | 5.0 | 9.0 | 0.00 | 0.13 | 0.00 | 38 | 1017.1 |
| 20260505051834 | 64 | 125 | 5.0 | 11.0 | 0.00 | 0.13 | 0.00 | 41 | 1017.1 |
| 20260505051329 | 63 | 128 | 6.0 | 11.0 | 0.00 | 0.13 | 0.00 | 40 | 1017.2 |
| 20260505050820 | 64 | 181 | 7.0 | 11.0 | 0.00 | 0.13 | 0.00 | 41 | 1017.3 |
| 20260505050350 | 64 | 181 | 6.0 | 11.0 | 0.00 | 0.13 | 0.00 | 43 | 1017.4 |
| 20260505041356 | 64 | 103 | 4.0 | 12.0 | 0.00 | 0.13 | 0.00 | 53 | 1017.9 |
| 20260505040826 | 65 | 90 | 7.0 | 11.0 | 0.00 | 0.13 | 0.00 | 55 | 1018.0 |
| 20260505040322 | 65 | 189 | 5.0 | 11.0 | 0.00 | 0.13 | 0.00 | 53 | 1018.0 |
| 20260505035829 | 65 | 110 | 5.0 | 11.0 | 0.00 | 0.14 | 0.00 | 49 | 1018.1 |
| 20260505035319 | 66 | 164 | 6.0 | 11.0 | 0.00 | 0.14 | 0.00 | 48 | 1018.1 |
| 20260505034829 | 67 | 97 | 4.0 | 11.0 | 0.00 | 0.14 | 0.00 | 49 | 1018.0 |
| 20260505034340 | 66 | 150 | 2.0 | 9.0 | 0.00 | 0.14 | 0.00 | 44 | 1018.0 |
| 20260505033849 | 66 | 153 | 4.0 | 9.0 | 0.00 | 0.14 | 0.00 | 38 | 1018.0 |
| 20260505033317 | 66 | 198 | 4.0 | 10.0 | 0.00 | 0.14 | 0.00 | 43 | 1018.1 |
| 20260505032823 | 65 | 145 | 6.0 | 12.0 | 0.00 | 0.14 | 0.00 | 38 | 1018.1 |
| 20260505032334 | 65 | 196 | 5.0 | 12.0 | 0.00 | 0.14 | 0.00 | 41 | 1018.3 |
| 20260505031825 | 66 | 181 | 4.0 | 11.0 | 0.00 | 0.14 | 0.00 | 38 | 1018.3 |
| 20260505031355 | 66 | 166 | 6.0 | 11.0 | 0.00 | 0.14 | 0.00 | 35 | 1018.5 |
| 20260505030825 | 66 | 214 | 5.0 | 10.0 | 0.00 | 0.14 | 0.00 | 39 | 1018.5 |
| 20260505030336 | 67 | 193 | 5.0 | 8.0 | 0.00 | 0.14 | 0.00 | 36 | 1018.6 |
| 20260505025822 | 66 | 107 | 3.0 | 7.0 | 0.00 | 0.14 | 0.00 | 35 | 1018.6 |
| 20260505025317 | 66 | 148 | 3.0 | 8.0 | 0.00 | 0.14 | 0.00 | 37 | 1018.5 |
| 20260505024828 | 67 | 150 | 5.0 | 8.0 | 0.00 | 0.14 | 0.00 | 43 | 1018.6 |
| 20260505024317 | 66 | 163 | 3.0 | 7.0 | 0.00 | 0.14 | 0.00 | 40 | 1018.5 |
| 20260505023827 | 66 | 173 | 2.0 | 8.0 | 0.00 | 0.14 | 0.00 | 40 | 1018.5 |
| 20260505023318 | 65 | 164 | 4.0 | 8.0 | 0.00 | 0.14 | 0.00 | 35 | 1018.7 |
| 20260505022821 | 65 | 154 | 3.0 | 8.0 | 0.00 | 0.14 | 0.00 | 35 | 1018.6 |
| 20260505022330 | 65 | 210 | 3.0 | 8.0 | 0.00 | 0.14 | 0.00 | 41 | 1018.6 |
| 20260505021840 | 65 | 131 | 4.0 | 12.0 | 0.00 | 0.14 | 0.00 | 40 | 1018.6 |
| 20260505021328 | 66 | 151 | 4.0 | 10.0 | 0.00 | 0.14 | 0.00 | 35 | 1018.7 |
| 20260505020819 | 66 | 116 | 3.0 | 10.0 | 0.00 | 0.14 | 0.00 | 35 | 1018.6 |
| 20260505020328 | 66 | 79 | 3.0 | 8.0 | 0.00 | 0.14 | 0.00 | 35 | 1018.6 |
| 20260505015834 | 66 | 134 | 4.0 | 8.0 | 0.00 | 0.14 | 0.00 | 34 | 1018.7 |
| 20260505015346 | 66 | 96 | 1.0 | 7.0 | 0.00 | 0.14 | 0.00 | 35 | 1018.7 |
| 20260505014816 | 66 | 94 | 2.0 | 7.0 | 0.00 | 0.14 | 0.00 | 39 | 1018.8 |
| 20260505014331 | 65 | 106 | 3.0 | 7.0 | 0.00 | 0.14 | 0.00 | 32 | 1018.8 |
| 20260505013820 | 65 | 101 | 4.0 | 9.0 | 0.00 | 0.14 | 0.00 | 33 | 1018.9 |
| 20260505013331 | 66 | 89 | 6.0 | 9.0 | 0.00 | 0.14 | 0.00 | 37 | 1018.7 |
| 20260505012817 | 66 | 201 | 2.0 | 8.0 | 0.00 | 0.14 | 0.00 | 40 | 1018.8 |
| 20260505012328 | 66 | 192 | 3.0 | 8.0 | 0.00 | 0.14 | 0.00 | 39 | 1018.7 |
| 20260505011817 | 65 | 95 | 2.0 | 8.0 | 0.00 | 0.14 | 0.00 | 41 | 1018.7 |
| 20260505011348 | 65 | 105 | 4.0 | 7.0 | 0.00 | 0.14 | 0.00 | 41 | 1018.6 |
| 20260505010837 | 65 | 130 | 1.0 | 5.0 | 0.00 | 0.14 | 0.00 | 38 | 1018.5 |
| 20260505010326 | 64 | 211 | 2.0 | 6.0 | 0.00 | 0.14 | 0.00 | 38 | 1018.6 |
| 20260505005834 | 65 | 143 | 2.0 | 6.0 | 0.00 | 0.14 | 0.00 | 39 | 1018.6 |
| 20260505005326 | 65 | 86 | 3.0 | 6.0 | 0.00 | 0.14 | 0.00 | 43 | 1018.5 |
| 20260505004820 | 65 | 32 | 1.0 | 4.0 | 0.00 | 0.14 | 0.00 | 41 | 1018.5 |
| 20260505004332 | 65 | 77 | 2.0 | 4.0 | 0.00 | 0.14 | 0.00 | 44 | 1018.5 |
| 20260505003842 | 64 | 91 | 1.0 | 12.0 | 0.00 | 0.14 | 0.00 | 44 | 1018.5 |
| 20260505003332 | 64 | 16 | 3.0 | 12.0 | 0.00 | 0.14 | 0.00 | 44 | 1018.4 |
| 20260505002818 | 63 | 79 | 1.0 | 5.0 | 0.00 | 0.14 | 0.00 | 47 | 1018.5 |
| 20260505002326 | 63 | 321 | 1.0 | 6.0 | 0.00 | 0.14 | 0.00 | 49 | 1018.5 |
| 20260505001818 | 63 | 62 | 4.0 | 6.0 | 0.00 | 0.14 | 0.00 | 51 | 1018.5 |
| 20260505001329 | 62 | 119 | 2.0 | 3.0 | 0.00 | 0.14 | 0.00 | 54 | 1018.5 |
| 20260505000821 | 62 | 215 | 1.0 | 13.0 | 0.00 | 0.14 | 0.00 | 57 | 1018.4 |
| 20260505000351 | 61 | 158 | 0.0 | 13.0 | 0.00 | 0.14 | 0.00 | 55 | 1018.4 |
| 20260504235819 | 61 | 266 | 1.0 | 3.0 | 0.00 | 0.14 | 0.00 | 59 | 1018.3 |
| 20260504235331 | 60 | 84 | 0.0 | 3.0 | 0.00 | 0.14 | 0.00 | 58 | 1018.3 |
| 20260504234827 | 60 | 148 | 1.0 | 4.0 | 0.00 | 0.14 | 0.00 | 60 | 1018.3 |
| 20260504234337 | 60 | 16 | 1.0 | 4.0 | 0.00 | 0.14 | 0.00 | 62 | 1018.3 |
| 20260504233828 | 59 | 117 | 1.0 | 2.0 | 0.00 | 0.14 | 0.00 | 63 | 1018.3 |
| 20260504233319 | 58 | 89 | 1.0 | 3.0 | 0.00 | 0.14 | 0.00 | 62 | 1018.3 |
| 20260504232826 | 58 | 95 | 0.0 | 2.0 | 0.00 | 0.14 | 0.00 | 64 | 1018.3 |
| 20260504232335 | 58 | 126 | 0.0 | 4.0 | 0.00 | 0.14 | 0.00 | 66 | 1018.3 |
| 20260504231826 | 57 | 75 | 1.0 | 4.0 | 0.00 | 0.14 | 0.00 | 66 | 1018.3 |
| 20260504231357 | 57 | 96 | 0.0 | 2.0 | 0.00 | 0.14 | 0.00 | 68 | 1018.4 |
| 20260504230824 | 57 | 101 | 0.0 | 3.0 | 0.00 | 0.14 | 0.00 | 69 | 1018.4 |
| 20260504230336 | 57 | 76 | 1.0 | 3.0 | 0.00 | 0.14 | 0.00 | 70 | 1018.3 |
| 20260504225820 | 57 | 75 | 1.0 | 3.0 | 0.00 | 0.14 | 0.00 | 70 | 1018.3 |
| 20260504225335 | 56 | 87 | 0.0 | 2.0 | 0.00 | 0.14 | 0.00 | 72 | 1018.1 |
| 20260504224824 | 56 | 203 | 0.0 | 3.0 | 0.00 | 0.14 | 0.00 | 71 | 1018.0 |
| 20260504224335 | 55 | 70 | 1.0 | 3.0 | 0.00 | 0.14 | 0.00 | 73 | 1018.1 |
| 20260504223826 | 55 | 83 | 1.0 | 2.0 | 0.00 | 0.14 | 0.00 | 74 | 1017.9 |
| 20260504223337 | 56 | 73 | 1.0 | 2.0 | 0.00 | 0.14 | 0.00 | 75 | 1017.9 |
| 20260504222828 | 55 | 140 | 0.0 | 1.0 | 0.00 | 0.14 | 0.00 | 76 | 1017.7 |
| 20260504222318 | 55 | 73 | 0.0 | 1.0 | 0.00 | 0.14 | 0.00 | 75 | 1017.8 |
| 20260504221828 | 54 | 101 | 0.0 | 1.0 | 0.00 | 0.14 | 0.00 | 75 | 1017.7 |
| 20260504221317 | 54 | 117 | 0.0 | 1.0 | 0.00 | 0.14 | 0.00 | 77 | 1017.7 |
| 20260504220825 | 53 | 170 | 0.0 | 1.0 | 0.00 | 0.14 | 0.00 | 76 | 1017.5 |
| 20260504220317 | 53 | 172 | 0.0 | 1.0 | 0.00 | 0.14 | 0.00 | 78 | 1017.6 |
| 20260504215845 | 52 | 169 | 0.0 | 1.0 | 0.00 | 0.14 | 0.00 | 78 | 1017.7 |
| 20260504215355 | 52 | 164 | 0.0 | 1.0 | 0.00 | 0.14 | 0.00 | 79 | 1017.6 |
| 20260504214824 | 51 | 196 | 0.0 | 2.0 | 0.00 | 0.14 | 0.00 | 80 | 1017.7 |
| 20260504214320 | 50 | 198 | 0.0 | 2.0 | 0.00 | 0.14 | 0.00 | 81 | 1017.6 |
| 20260504213831 | 50 | 165 | 0.0 | 1.0 | 0.00 | 0.14 | 0.00 | 82 | 1017.6 |
| 20260504213319 | 49 | 165 | 0.0 | 2.0 | 0.00 | 0.14 | 0.00 | 84 | 1017.6 |
| 20260504212825 | 49 | 165 | 0.0 | 2.0 | 0.00 | 0.14 | 0.00 | 86 | 1017.5 |
| 20260504212333 | 48 | 198 | 0.0 | 2.0 | 0.00 | 0.14 | 0.00 | 86 | 1017.5 |
| 20260504211824 | 48 | 173 | 0.0 | 1.0 | 0.00 | 0.14 | 0.00 | 88 | 1017.4 |
| 20260504211334 | 47 | 173 | 0.0 | 1.0 | 0.00 | 0.14 | 0.00 | 89 | 1017.4 |
| 20260504210824 | 47 | 148 | 0.0 | 0.0 | 0.00 | 0.14 | 0.00 | 91 | 1017.3 |
| 20260504210333 | 46 | 148 | 0.0 | 0.0 | 0.00 | 0.14 | 0.00 | 91 | 1017.2 |
| 20260504205818 | 46 | 144 | 0.0 | 0.0 | 0.00 | 0.17 | 0.00 | 91 | 1017.1 |
| 20260504205329 | 46 | 144 | 0.0 | 0.0 | 0.00 | 0.17 | 0.00 | 92 | 1017.1 |
| 20260504204824 | 46 | 144 | 0.0 | 0.0 | 0.00 | 0.17 | 0.00 | 93 | 1017.1 |
| 20260504204334 | 45 | 144 | 0.0 | 0.0 | 0.00 | 0.17 | 0.00 | 93 | 1017.0 |
| 20260504203844 | 45 | 115 | 0.0 | 0.0 | 0.00 | 0.17 | 0.00 | 94 | 1016.9 |
| 20260504203334 | 44 | 115 | 0.0 | 0.0 | 0.00 | 0.17 | 0.00 | 94 | 1016.9 |
| 20260504202839 | 44 | 114 | 0.0 | 0.0 | 0.00 | 0.17 | 0.00 | 94 | 1016.8 |
| 20260504202327 | 43 | 114 | 0.0 | 0.0 | 0.00 | 0.17 | 0.00 | 94 | 1016.8 |
| 20260504201817 | 43 | 133 | 0.0 | 0.0 | 0.00 | 0.17 | 0.00 | 94 | 1016.7 |
| 20260504201328 | 43 | 132 | 0.0 | 1.0 | 0.00 | 0.17 | 0.00 | 94 | 1016.7 |
| 20260504200818 | 43 | 144 | 0.0 | 1.0 | 0.00 | 0.17 | 0.00 | 94 | 1016.5 |
| 20260504200349 | 43 | 143 | 0.0 | 1.0 | 0.00 | 0.17 | 0.00 | 94 | 1016.5 |
| 20260504195816 | 43 | 153 | 0.0 | 1.0 | 0.00 | 0.21 | 0.00 | 94 | 1016.4 |
| 20260504195325 | 43 | 108 | 0.0 | 1.0 | 0.00 | 0.21 | 0.00 | 94 | 1016.3 |
| 20260504194854 | 43 | 136 | 0.0 | 1.0 | 0.00 | 0.21 | 0.00 | 94 | 1016.3 |
| 20260504194344 | 43 | 155 | 0.0 | 2.0 | 0.00 | 0.21 | 0.00 | 94 | 1016.1 |
| 20260504193818 | 43 | 140 | 0.0 | 2.0 | 0.00 | 0.21 | 0.00 | 94 | 1016.3 |
| 20260504193326 | 43 | 131 | 0.0 | 1.0 | 0.00 | 0.21 | 0.00 | 93 | 1016.1 |
| 20260504192829 | 43 | 114 | 0.0 | 1.0 | 0.00 | 0.21 | 0.00 | 93 | 1016.0 |
| 20260504192319 | 44 | 110 | 0.0 | 1.0 | 0.00 | 0.21 | 0.00 | 93 | 1016.0 |
| 20260504191829 | 44 | 174 | 0.0 | 1.0 | 0.00 | 0.21 | 0.00 | 93 | 1015.8 |
| 20260504191319 | 44 | 102 | 0.0 | 1.0 | 0.00 | 0.21 | 0.00 | 93 | 1015.8 |
| 20260504190850 | 44 | 102 | 0.0 | 3.0 | 0.00 | 0.21 | 0.00 | 93 | 1015.8 |
| 20260504190321 | 44 | 177 | 0.0 | 1.0 | 0.00 | 0.21 | 0.00 | 93 | 1015.7 |
| 20260504185828 | 44 | 135 | 0.0 | 1.0 | 0.00 | 0.24 | 0.00 | 94 | 1015.9 |
| 20260504185338 | 44 | 114 | 0.0 | 1.0 | 0.00 | 0.24 | 0.00 | 93 | 1015.8 |
| 20260504184828 | 44 | 115 | 0.0 | 1.0 | 0.00 | 0.24 | 0.00 | 93 | 1015.8 |
| 20260504184318 | 44 | 96 | 0.0 | 2.0 | 0.00 | 0.24 | 0.00 | 93 | 1015.8 |
| 20260504183848 | 45 | 96 | 0.0 | 2.0 | 0.00 | 0.24 | 0.00 | 93 | 1015.7 |
| 20260504183316 | 45 | 143 | 0.0 | 1.0 | 0.00 | 0.24 | 0.00 | 92 | 1015.5 |
| 20260504182823 | 45 | 203 | 0.0 | 2.0 | 0.00 | 0.24 | 0.00 | 93 | 1015.3 |
| 20260504182316 | 45 | 198 | 0.0 | 1.0 | 0.00 | 0.24 | 0.00 | 92 | 1015.2 |
| 20260504181825 | 45 | 207 | 0.0 | 2.0 | 0.00 | 0.24 | 0.00 | 92 | 1015.2 |
| 20260504181315 | 45 | 209 | 0.0 | 2.0 | 0.00 | 0.24 | 0.00 | 92 | 1015.3 |
| 20260504180846 | 45 | 144 | 0.0 | 0.0 | 0.00 | 0.24 | 0.00 | 92 | 1015.4 |
| 20260504180355 | 45 | 186 | 0.0 | 1.0 | 0.00 | 0.24 | 0.00 | 92 | 1015.3 |
| 20260504175819 | 46 | 184 | 0.0 | 1.0 | 0.00 | 0.24 | 0.00 | 92 | 1015.2 |
| 20260504175330 | 46 | 183 | 0.0 | 1.0 | 0.00 | 0.24 | 0.00 | 91 | 1015.0 |
| 20260504174820 | 46 | 184 | 0.0 | 1.0 | 0.00 | 0.24 | 0.00 | 91 | 1015.0 |
| 20260504174330 | 46 | 184 | 0.0 | 0.0 | 0.00 | 0.24 | 0.00 | 91 | 1015.0 |
| 20260504173841 | 46 | 184 | 0.0 | 0.0 | 0.00 | 0.24 | 0.00 | 91 | 1015.0 |
| 20260504173330 | 46 | 184 | 0.0 | 0.0 | 0.00 | 0.24 | 0.00 | 91 | 1015.0 |
| 20260504172837 | 46 | 184 | 0.0 | 2.0 | 0.00 | 0.24 | 0.00 | 91 | 1015.0 |
| 20260504172327 | 46 | 197 | 0.0 | 2.0 | 0.00 | 0.24 | 0.00 | 90 | 1015.0 |
| 20260504171816 | 47 | 195 | 0.0 | 1.0 | 0.00 | 0.24 | 0.00 | 90 | 1015.0 |
| 20260504171324 | 47 | 195 | 0.0 | 1.0 | 0.00 | 0.24 | 0.00 | 90 | 1015.0 |
| 20260504170818 | 47 | 196 | 0.0 | 1.0 | 0.00 | 0.24 | 0.00 | 90 | 1014.9 |
| 20260504160319 | 50 | 329 | 1.0 | 2.0 | 0.00 | 0.26 | 0.00 | 79 | 1014.7 |
| 20260504150823 | 52 | 87 | 7.0 | 16.0 | 0.00 | 0.28 | 0.00 | 75 | 1014.4 |
| 20260504150354 | 52 | 91 | 10.0 | 16.0 | 0.00 | 0.28 | 0.00 | 75 | 1014.3 |
| 20260504141325 | 52 | 89 | 2.0 | 7.0 | 0.00 | 0.30 | 0.28 | 81 | 1014.0 |
| 20260504140834 | 52 | 99 | 3.0 | 8.0 | 0.00 | 0.30 | 0.28 | 81 | 1014.0 |
| 20260504140322 | 52 | 81 | 4.0 | 10.0 | 0.00 | 0.30 | 0.28 | 80 | 1014.0 |
| 20260504130820 | 52 | 91 | 6.0 | 15.0 | 0.01 | 0.33 | 0.28 | 78 | 1013.5 |
| 20260504130331 | 52 | 123 | 5.0 | 20.0 | 0.01 | 0.33 | 0.28 | 78 | 1013.5 |
| 20260504110325 | 54 | 96 | 11.0 | 28.0 | 0.00 | 0.35 | 0.22 | 78 | 1010.2 |